Location: Asheville, NC
(35.6000°N, 82.5500°W)
Time: 07:35:08
(UTC-04:00)

AO-7 - Pass Details

Date: 04 January 2018
Orbit: 1440 x 1459 km, 101.7° (Epoch: 19 June)

Event Time Altitude Azimuth Distance (km) Brightness Sun altitude
Rises 03:25:10 0° 23° (NNE) 4,569 ? -51.0°
Reaches altitude 10° 03:28:10 10° 30° (NNE) 3,587 ? -50.4°
Enters shadow 03:31:34 25° 44° (NE) 2,584 ? -49.8°
